Change the Weather History Date:

Wednesday, September 18, 2013

  Actual Average Record
Temperature  
Mean Temperature 78 °F -  
Max Temperature 92 °F 74 °F 94 °F (1955)
Min Temperature 63 °F 52 °F 34 °F (1981)
Cooling Degree Days 12    
Growing Degree Days 28 (Base 50)    
Moisture  
Dew Point 63 °F    
Average Humidity 69    
Maximum Humidity 88    
Minimum Humidity 41    
Precipitation  
Precipitation 0.18 in - - ()
Sea Level Pressure  
Sea Level Pressure 29.90 in    
Wind  
Wind Speed 9 mph (South)    
Max Wind Speed 13 mph    
Max Gust Speed 23 mph    
Visibility 7 miles    
Events Rain    
Averages and records for this station are not official NWS values.
T = Trace of Precipitation, MM = Missing Value Source: NWS Daily Summary

Daily Weather History Graph

Daily Weather History Graph

Search for Another Location

Airport or City:

Trip Planner

Search our weather history database for the weather conditions in past years. The results will help you decide how hot, cold, wet, or windy it might be!

Date:

Astronomy

Sep. 18, 2013 Rise Set
Actual Time 6:51 AM CDT 7:11 PM CDT
Civil Twilight 6:23 AM CDT 7:39 PM CDT
Nautical Twilight 5:50 AM CDT 8:12 PM CDT
Astronomical Twilight 5:16 AM CDT 8:46 PM CDT
Moon 6:34 PM CDT (9/18) 5:54 AM CDT (9/18)
Length of Visible Light 13h 16m
Length of Day
12h 20m
Waxing Gibbous, 99% of the Moon is Illuminated
Sep 18
Waxing Gibbous
Sep 19
Full
Sep 26
Last Quarter
Oct 4
New
Oct 11
First Quarter

Hourly Weather History & Observations

Time (CDT) Temp. Heat Index Dew Point Humidity Pressure Visibility Wind Dir Wind Speed Gust Speed Precip Events Conditions
12:15 AM 66.7 °F - 59.5 °F 78% 30.03 in 10.0 mi South 9.2 mph 16.1 mph N/A   Overcast
12:35 AM 66.4 °F - 59.2 °F 78% 30.03 in 7.0 mi South 9.2 mph - N/A   Overcast
12:55 AM 66.0 °F - 59.2 °F 79% 30.03 in 7.0 mi South 9.2 mph - N/A   Overcast
1:15 AM 65.7 °F - 59.2 °F 80% 30.03 in 7.0 mi South 10.4 mph 16.1 mph N/A   Overcast
1:35 AM 65.5 °F - 59.4 °F 81% 30.03 in 7.0 mi South 8.1 mph - N/A   Overcast
1:55 AM 65.1 °F - 59.4 °F 82% 30.02 in 5.0 mi South 9.2 mph 16.1 mph N/A   Haze
2:15 AM 64.8 °F - 59.5 °F 83% 30.02 in 5.0 mi South 8.1 mph - N/A   Haze
2:35 AM 64.8 °F - 59.9 °F 84% 30.01 in 4.0 mi South 8.1 mph - N/A   Haze
2:55 AM 64.6 °F - 59.9 °F 85% 30.00 in 4.0 mi South 9.2 mph - N/A   Haze
3:15 AM 64.6 °F - 60.1 °F 85% 30.00 in 4.0 mi South 8.1 mph - N/A   Haze
3:35 AM 64.8 °F - 60.1 °F 85% 29.99 in 5.0 mi South 8.1 mph - N/A   Haze
3:55 AM 64.9 °F - 59.9 °F 84% 29.98 in 5.0 mi South 9.2 mph - N/A   Haze
4:15 AM 65.3 °F - 60.3 °F 84% 29.97 in 5.0 mi SSE 9.2 mph - N/A   Haze
4:35 AM 65.5 °F - 60.3 °F 83% 29.97 in 5.0 mi South 9.2 mph - N/A   Haze
4:55 AM 65.7 °F - 60.4 °F 83% 29.97 in 5.0 mi South 10.4 mph 16.1 mph N/A   Haze
5:15 AM 65.8 °F - 60.8 °F 84% 29.96 in 5.0 mi South 8.1 mph - N/A   Haze
5:35 AM 65.5 °F - 60.4 °F 84% 29.96 in 5.0 mi South 10.4 mph - N/A   Haze
5:55 AM 65.5 °F - 60.8 °F 85% 29.95 in 4.0 mi South 9.2 mph - N/A   Haze
6:15 AM 65.5 °F - 60.8 °F 85% 29.96 in 4.0 mi South 8.1 mph - N/A   Haze
6:35 AM 65.3 °F - 60.1 °F 83% 29.95 in 4.0 mi SSE 9.2 mph - N/A   Haze
6:55 AM 64.8 °F - 59.5 °F 83% 29.95 in 4.0 mi SSE 9.2 mph - N/A   Haze
7:15 AM 64.4 °F - 59.4 °F 84% 29.96 in 4.0 mi South 5.8 mph - N/A   Haze
7:35 AM 64.4 °F - 59.9 °F 85% 29.95 in 2.5 mi South 10.4 mph - 0.04 in Rain Light Rain
7:55 AM 64.4 °F - 60.3 °F 86% 29.96 in 2.5 mi SSE 3.5 mph - 0.07 in Rain Light Rain
8:15 AM 64.4 °F - 60.3 °F 86% 29.96 in 3.0 mi SSE 3.5 mph - N/A Rain Light Rain
8:55 AM 63.0 °F - 59.2 °F 87% 29.95 in 1.8 mi SE 10.4 mph - 0.09 in Rain Heavy Rain
9:15 AM 63.5 °F - 59.5 °F 87% 29.95 in 1.8 mi SE 9.2 mph - N/A   Overcast
9:35 AM 64.4 °F - 60.6 °F 88% 29.95 in 1.8 mi SSE 10.4 mph - 0.01 in Rain Light Rain
9:55 AM 64.4 °F - 60.8 °F 88% 29.95 in 1.5 mi SSE 10.4 mph - 0.01 in Rain Light Rain
10:15 AM 64.4 °F - 60.8 °F 88% 29.95 in 1.2 mi SSE 12.7 mph - 0.01 in Rain Light Rain
10:35 AM 64.6 °F - 61.0 °F 88% 29.94 in 1.5 mi SSE 12.7 mph - 0.01 in Rain Light Rain
10:55 AM 65.3 °F - 61.7 °F 88% 29.93 in 1.8 mi South 10.4 mph 19.6 mph 0.01 in   Overcast
11:15 AM 66.7 °F - 63.0 °F 88% 29.93 in 2.0 mi SSE 9.2 mph - N/A   Overcast
11:35 AM 69.3 °F - 65.1 °F 87% 29.92 in 3.0 mi SSE 10.4 mph 18.4 mph N/A   Overcast
11:55 AM 71.8 °F - 65.1 °F 79% 29.91 in 5.0 mi SSE 12.7 mph 18.4 mph N/A   Haze
12:15 PM 74.3 °F - 66.0 °F 75% 29.91 in 7.0 mi SSE 10.4 mph 16.1 mph N/A   Scattered Clouds
12:35 PM 77.0 °F - 65.8 °F 68% 29.90 in 7.0 mi SSE 11.5 mph 17.3 mph N/A   Clear
12:55 PM 79.2 °F - 67.1 °F 66% 29.90 in 10.0 mi SE 10.4 mph 16.1 mph N/A   Clear
1:15 PM 80.1 °F 82.2 °F 66.4 °F 63% 29.89 in 10.0 mi SE 11.5 mph 17.3 mph N/A   Clear
1:35 PM 81.9 °F 84.1 °F 66.4 °F 59% 29.88 in 10.0 mi SSE 12.7 mph 18.4 mph N/A   Clear
1:55 PM 84.2 °F 86.6 °F 66.6 °F 55% 29.87 in 10.0 mi SSE 10.4 mph 17.3 mph N/A   Clear
2:15 PM 85.6 °F 87.6 °F 65.8 °F 51% 29.85 in 10.0 mi SSE 10.4 mph - N/A   Clear
2:35 PM 86.4 °F 88.7 °F 66.2 °F 51% 29.84 in 10.0 mi SE 12.7 mph - N/A   Clear
2:55 PM 90.7 °F 94.1 °F 67.5 °F 46% 29.83 in 10.0 mi SSE 12.7 mph 18.4 mph N/A   Clear
3:15 PM 92.3 °F 96.5 °F 68.0 °F 45% 29.83 in 10.0 mi South 11.5 mph 18.4 mph N/A   Clear
3:35 PM 92.3 °F 95.6 °F 67.1 °F 43% 29.82 in 10.0 mi South 11.5 mph 20.7 mph N/A   Clear
3:55 PM 92.3 °F 95.6 °F 66.9 °F 43% 29.81 in 10.0 mi South 9.2 mph 19.6 mph N/A   Clear
4:15 PM 89.8 °F 92.1 °F 65.7 °F 45% 29.81 in 10.0 mi South 12.7 mph - N/A   Scattered Clouds
4:35 PM 90.7 °F 93.2 °F 66.0 °F 44% 29.80 in 10.0 mi South 10.4 mph - N/A   Scattered Clouds
4:55 PM 92.3 °F 94.7 °F 65.7 °F 41% 29.80 in 10.0 mi South 11.5 mph 19.6 mph N/A   Scattered Clouds
5:15 PM 92.3 °F 94.7 °F 65.5 °F 41% 29.80 in 10.0 mi South 10.4 mph 21.9 mph N/A   Scattered Clouds
5:35 PM 92.3 °F 94.7 °F 65.5 °F 41% 29.80 in 10.0 mi South 12.7 mph 23.0 mph N/A   Scattered Clouds
5:55 PM 89.6 °F 90.8 °F 64.0 °F 42% 29.80 in 10.0 mi South 9.2 mph 16.1 mph N/A   Scattered Clouds
6:15 PM 89.6 °F 91.1 °F 64.2 °F 43% 29.79 in 10.0 mi South 9.2 mph - N/A   Clear
6:35 PM 86.2 °F 86.6 °F 61.9 °F 44% 29.79 in 10.0 mi South 9.2 mph - N/A   Clear
6:55 PM 85.1 °F 85.7 °F 62.1 °F 46% 29.80 in 10.0 mi South 10.4 mph - N/A   Clear
7:15 PM 84.4 °F 85.2 °F 63.0 °F 48% 29.80 in 10.0 mi South 9.2 mph - N/A   Clear
7:35 PM 82.9 °F 84.2 °F 63.7 °F 52% 29.81 in 10.0 mi South 8.1 mph - N/A   Clear
7:55 PM 81.9 °F 83.4 °F 64.4 °F 55% 29.81 in 10.0 mi South 6.9 mph - N/A   Clear
8:15 PM 81.9 °F 83.7 °F 65.3 °F 57% 29.82 in 10.0 mi South 6.9 mph - N/A   Clear
8:35 PM 79.3 °F - 64.4 °F 60% 29.83 in 10.0 mi South 6.9 mph - N/A   Clear
8:55 PM 79.3 °F - 64.6 °F 60% 29.83 in 10.0 mi South 6.9 mph - N/A   Clear
9:15 PM 79.3 °F - 65.3 °F 62% 29.83 in 10.0 mi South 8.1 mph - N/A   Clear
9:35 PM 79.3 °F - 65.8 °F 63% 29.83 in 10.0 mi South 8.1 mph - N/A   Clear
9:55 PM 79.0 °F - 65.8 °F 64% 29.83 in 10.0 mi South 9.2 mph - N/A   Scattered Clouds
10:15 PM 77.7 °F - 65.3 °F 65% 29.83 in 10.0 mi South 9.2 mph - N/A   Scattered Clouds
10:35 PM 77.0 °F - 64.8 °F 66% 29.84 in 10.0 mi South 9.2 mph - N/A   Clear
10:55 PM 77.0 °F - 65.1 °F 67% 29.84 in 10.0 mi South 8.1 mph - N/A   Clear
11:15 PM 77.0 °F - 65.3 °F 67% 29.84 in 10.0 mi South 10.4 mph - N/A   Clear
11:35 PM 77.0 °F - 65.3 °F 67% 29.84 in 10.0 mi South 11.5 mph - N/A   Clear
11:55 PM 77.0 °F - 65.3 °F 67% 29.83 in 10.0 mi South 9.2 mph - N/A   Clear